Location: Newark
(41.0400°S, 62.7845°W)
Time: 01:51:39
(UTC+00:00)

Transit 2A - Pass Details

Date: 07 December 2021
Orbit: 591 x 967 km, 66.7° (Epoch: 20 January)

Event Time Altitude Azimuth Distance (km) Brightness Sun altitude
Rises 23:17:08 0° 200° (SSW) 2,866 9.8 1.8°
Reaches altitude 10° 23:19:40 10° 187° (S) 1,963 8.7 1.4°
Maximum altitude 23:23:24 26° 129° (SE) 1,214 6.9 0.8°
Drops below altitude 10° 23:27:13 10° 71° (ENE) 2,026 7.6 0.2°
Enters shadow 23:29:44 - 59° (ENE) 2,930 8.3 -0.2°
Sets 23:29:52 0° 58° (ENE) 2,977 - -0.2°
